Year,Month,Day,Hour,Minute,Value (Times are PST for temperature in C)
2008,06,03,00,00,10.60
2008,06,03,00,01,10.60
2008,06,03,00,02,10.60
2008,06,03,00,03,10.60
2008,06,03,00,04,10.60
2008,06,03,00,05,10.60
2008,06,03,00,06,10.60
2008,06,03,00,07,10.60
2008,06,03,00,08,10.60
2008,06,03,00,09,10.60
2008,06,03,00,10,10.60
2008,06,03,00,11,10.50
2008,06,03,00,12,10.40
2008,06,03,01,02,10.10
2008,06,03,01,03,10.10
2008,06,03,01,04,10.10
2008,06,03,01,05,10.10
2008,06,03,01,06,10.10
2008,06,03,01,07,10.10
2008,06,03,01,08,10.10
2008,06,03,01,09,10.10
2008,06,03,01,10,10.10
2008,06,03,01,11,10.10
2008,06,03,01,12,10.10
2008,06,03,01,13,10.10
2008,06,03,01,14,10.10
2008,06,03,01,15,10.10
2008,06,03,01,16,10.10
2008,06,03,01,17,10.10
2008,06,03,01,18,10.10
2008,06,03,01,19,10.10
2008,06,03,01,20,10.10
2008,06,03,01,21,10.10
2008,06,03,01,22,10.10
2008,06,03,01,23,10.10
2008,06,03,01,24,10.10
2008,06,03,01,25,10.10
2008,06,03,01,26,10.10
2008,06,03,01,27,10.10
2008,06,03,01,28,10.10
2008,06,03,01,29,10.10
2008,06,03,01,30,10.10
2008,06,03,01,31,10.10
2008,06,03,01,32,10.10
2008,06,03,01,33,10.10
2008,06,03,01,34,10.10
2008,06,03,01,35,10.10
2008,06,03,01,36,10.10
2008,06,03,01,37,10.10
2008,06,03,01,38,10.10
2008,06,03,01,39,10.10
2008,06,03,01,40,10.20
2008,06,03,01,41,10.20
2008,06,03,01,42,10.20
2008,06,03,01,43,10.20
2008,06,03,01,44,10.20
2008,06,03,01,45,10.20
2008,06,03,01,46,10.20
2008,06,03,01,47,10.20
2008,06,03,01,48,10.20
2008,06,03,01,49,10.20
2008,06,03,01,50,10.20
2008,06,03,01,51,10.20
2008,06,03,01,52,10.20
2008,06,03,01,53,10.10
2008,06,03,01,54,10.10
2008,06,03,01,55,10.10
2008,06,03,01,56,10.10
2008,06,03,01,57,10.10
2008,06,03,01,58,10.10
2008,06,03,01,59,10.10
2008,06,03,02,00,10.10
2008,06,03,02,01,10.10
2008,06,03,02,02,10.10
2008,06,03,02,03,10.10
2008,06,03,02,04,10.10
2008,06,03,02,05,10.10
2008,06,03,02,06,10.10
2008,06,03,02,07,10.10
2008,06,03,02,08,10.10
2008,06,03,02,09,10.10
2008,06,03,02,10,10.00
2008,06,03,02,11,9.90
2008,06,03,02,12,9.90
2008,06,03,02,13,9.90
2008,06,03,02,14,9.90
2008,06,03,02,15,9.90
2008,06,03,02,16,9.90
2008,06,03,02,17,9.90
2008,06,03,02,18,9.90
2008,06,03,02,19,9.90
2008,06,03,02,20,9.90
2008,06,03,02,21,9.90
2008,06,03,02,22,9.90
2008,06,03,02,23,9.90
2008,06,03,02,24,9.90
2008,06,03,02,25,9.90
2008,06,03,02,26,9.90
2008,06,03,02,27,9.90
2008,06,03,02,28,9.90
2008,06,03,02,29,9.90
2008,06,03,02,30,9.90
2008,06,03,02,31,9.90
2008,06,03,02,32,9.90
2008,06,03,02,33,9.90
2008,06,03,02,34,9.90
2008,06,03,02,35,9.90
2008,06,03,02,36,9.90
2008,06,03,02,37,9.90
2008,06,03,02,38,9.90
2008,06,03,02,39,9.90
2008,06,03,02,40,9.90
2008,06,03,02,41,9.90
2008,06,03,02,42,9.90
2008,06,03,02,43,9.90
2008,06,03,02,44,9.90
2008,06,03,02,45,9.90
2008,06,03,02,46,9.90
2008,06,03,02,47,9.90
2008,06,03,02,48,9.90
2008,06,03,02,49,9.90
2008,06,03,02,50,9.90
2008,06,03,02,51,9.90
2008,06,03,02,52,9.90
2008,06,03,02,53,9.90
2008,06,03,02,54,9.90
2008,06,03,02,55,9.90
2008,06,03,02,56,9.90
2008,06,03,02,57,9.90
2008,06,03,02,58,9.90
2008,06,03,02,59,9.90
2008,06,03,03,00,9.90
2008,06,03,03,01,9.90
2008,06,03,03,02,10.00
2008,06,03,03,03,10.00
2008,06,03,03,04,10.10
2008,06,03,03,05,10.10
2008,06,03,03,06,10.10
2008,06,03,03,07,10.10
2008,06,03,03,08,10.10
2008,06,03,03,09,10.10
2008,06,03,03,10,10.10
2008,06,03,03,11,10.10
2008,06,03,03,12,10.10
2008,06,03,03,13,10.10
2008,06,03,03,14,10.10
2008,06,03,03,15,10.10
2008,06,03,03,16,10.10
2008,06,03,03,17,10.10
2008,06,03,03,18,10.10
2008,06,03,03,19,10.10
2008,06,03,03,20,10.10
2008,06,03,03,21,10.10
2008,06,03,03,22,10.10
2008,06,03,03,23,10.10
2008,06,03,03,24,10.10
2008,06,03,03,25,10.10
2008,06,03,03,26,10.10
2008,06,03,03,27,10.10
2008,06,03,03,28,10.10
2008,06,03,03,29,10.10
2008,06,03,03,30,10.10
2008,06,03,03,31,10.10
2008,06,03,03,32,10.10
2008,06,03,03,33,10.10
2008,06,03,03,34,10.10
2008,06,03,03,35,10.10
2008,06,03,03,36,10.10
2008,06,03,03,37,10.10
2008,06,03,03,38,10.10
2008,06,03,03,39,10.10
2008,06,03,03,40,10.10
2008,06,03,03,41,10.10
2008,06,03,03,42,10.10
2008,06,03,03,43,10.10
2008,06,03,03,44,10.10
2008,06,03,03,45,10.10
2008,06,03,03,46,10.10
2008,06,03,03,47,10.10
2008,06,03,03,48,10.10
2008,06,03,03,49,10.10
2008,06,03,03,50,10.10
2008,06,03,03,51,10.10
2008,06,03,03,52,10.10
2008,06,03,03,53,10.10
2008,06,03,03,54,10.10
2008,06,03,03,55,10.10
2008,06,03,03,56,10.10
2008,06,03,03,57,10.10
2008,06,03,03,58,10.10
2008,06,03,03,59,10.10
2008,06,03,04,00,10.20
2008,06,03,04,01,10.20
2008,06,03,04,02,10.20
2008,06,03,04,03,10.20
2008,06,03,04,04,10.20
2008,06,03,04,05,10.20
2008,06,03,04,06,10.20
2008,06,03,04,07,10.20
2008,06,03,04,08,10.20
2008,06,03,04,09,10.20
2008,06,03,04,10,10.20
2008,06,03,04,11,10.20
2008,06,03,04,12,10.20
2008,06,03,04,13,10.20
2008,06,03,04,14,10.20
2008,06,03,04,15,10.20
2008,06,03,04,16,10.20
2008,06,03,04,17,10.20
2008,06,03,04,18,10.20
2008,06,03,04,19,10.20
2008,06,03,04,20,10.20
2008,06,03,04,21,10.20
2008,06,03,04,22,10.20
2008,06,03,04,23,10.20
2008,06,03,04,24,10.20
2008,06,03,04,25,10.20
2008,06,03,04,26,10.20
2008,06,03,04,27,10.20
2008,06,03,04,28,10.10
2008,06,03,04,29,10.10
2008,06,03,04,30,10.10
2008,06,03,04,31,10.10
2008,06,03,04,32,10.10
2008,06,03,04,33,10.10
2008,06,03,04,34,10.10
2008,06,03,04,35,10.10
2008,06,03,04,36,10.10
2008,06,03,04,37,10.10
2008,06,03,04,38,10.10
2008,06,03,04,39,10.10
2008,06,03,04,40,10.10
2008,06,03,04,41,10.10
2008,06,03,04,42,10.10
2008,06,03,04,43,10.10
2008,06,03,04,44,10.10
2008,06,03,04,45,10.10
2008,06,03,04,46,10.10
2008,06,03,04,47,10.10
2008,06,03,04,48,10.10
2008,06,03,04,49,10.10
2008,06,03,04,50,10.10
2008,06,03,04,51,10.10
2008,06,03,04,52,10.10
2008,06,03,04,53,10.10
2008,06,03,04,54,10.10
2008,06,03,04,55,10.10
2008,06,03,04,56,10.10
2008,06,03,04,57,10.10
2008,06,03,04,58,10.10
2008,06,03,04,59,10.10
2008,06,03,05,00,10.10
2008,06,03,05,01,10.10
2008,06,03,05,02,10.10
2008,06,03,05,03,10.10
2008,06,03,05,04,10.10
2008,06,03,05,05,10.10
2008,06,03,05,06,10.10
2008,06,03,05,07,10.10
2008,06,03,05,08,10.10
2008,06,03,05,09,10.10
2008,06,03,05,10,10.10
2008,06,03,05,11,10.20
2008,06,03,05,12,10.20
2008,06,03,05,13,10.20
2008,06,03,05,14,10.20
2008,06,03,05,15,10.20
2008,06,03,05,16,10.20
2008,06,03,05,17,10.20
2008,06,03,05,18,10.20
2008,06,03,05,19,10.20
2008,06,03,05,20,10.20
2008,06,03,05,21,10.20
2008,06,03,05,22,10.20
2008,06,03,05,23,10.20
2008,06,03,05,24,10.20
2008,06,03,05,25,10.20
2008,06,03,05,26,10.20
2008,06,03,05,27,10.20
2008,06,03,05,28,10.20
2008,06,03,05,29,10.20
2008,06,03,05,30,10.20
2008,06,03,05,31,10.20
2008,06,03,05,32,10.30
2008,06,03,05,33,10.30
2008,06,03,05,34,10.30
2008,06,03,05,35,10.30
2008,06,03,05,36,10.30
2008,06,03,05,37,10.30
2008,06,03,05,38,10.30
2008,06,03,05,39,10.30
2008,06,03,05,40,10.30
2008,06,03,05,41,10.30
2008,06,03,05,42,10.30
2008,06,03,05,43,10.30
2008,06,03,05,44,10.30
2008,06,03,05,45,10.30
2008,06,03,05,46,10.30
2008,06,03,05,47,10.30
2008,06,03,05,48,10.40
2008,06,03,05,49,10.40
2008,06,03,05,50,10.40
2008,06,03,05,51,10.40
2008,06,03,05,52,10.40
2008,06,03,05,53,10.40
2008,06,03,05,54,10.40
2008,06,03,05,55,10.40
2008,06,03,05,56,10.40
2008,06,03,05,57,10.40
2008,06,03,05,58,10.40
2008,06,03,05,59,10.40
2008,06,03,06,00,10.40
2008,06,03,06,01,10.40
2008,06,03,06,02,10.40
2008,06,03,06,03,10.40
2008,06,03,06,04,10.40
2008,06,03,06,05,10.40
2008,06,03,06,06,10.40
2008,06,03,06,07,10.40
2008,06,03,06,08,10.40
2008,06,03,06,09,10.40
2008,06,03,06,10,10.40
2008,06,03,06,11,10.40
2008,06,03,06,12,10.40
2008,06,03,06,13,10.40
2008,06,03,06,14,10.40
2008,06,03,06,15,10.40
2008,06,03,06,16,10.40
2008,06,03,06,17,10.40
2008,06,03,06,18,10.40
2008,06,03,06,19,10.40
2008,06,03,06,20,10.40
2008,06,03,06,21,10.40
2008,06,03,06,22,10.40
2008,06,03,06,23,10.40
2008,06,03,06,24,10.40
2008,06,03,06,25,10.30
2008,06,03,06,26,10.30
2008,06,03,06,27,10.30
2008,06,03,06,28,10.20
2008,06,03,06,29,10.20
2008,06,03,06,30,10.20
2008,06,03,06,31,10.20
2008,06,03,06,32,10.10
2008,06,03,06,33,10.10
2008,06,03,06,34,10.10
2008,06,03,06,35,10.10
2008,06,03,06,36,10.10
2008,06,03,06,37,10.10
2008,06,03,06,38,10.10
2008,06,03,06,39,10.10
2008,06,03,06,40,10.10
2008,06,03,06,41,10.10
2008,06,03,06,42,10.10
2008,06,03,06,43,10.10
2008,06,03,06,44,10.10
2008,06,03,06,45,10.10
2008,06,03,06,46,10.10
2008,06,03,06,47,10.10
2008,06,03,06,48,10.10
2008,06,03,06,49,10.10
2008,06,03,06,50,10.10
2008,06,03,06,51,10.10
2008,06,03,06,52,10.10
2008,06,03,06,53,10.20
2008,06,03,06,54,10.20
2008,06,03,06,55,10.20
2008,06,03,06,56,10.20
2008,06,03,06,57,10.20
2008,06,03,06,58,10.20
2008,06,03,06,59,10.20
2008,06,03,07,00,10.30
2008,06,03,07,01,10.30
2008,06,03,07,02,10.30
2008,06,03,07,03,10.30
2008,06,03,07,04,10.30
2008,06,03,07,05,10.30
2008,06,03,07,06,10.30
2008,06,03,07,07,10.30
2008,06,03,07,08,10.30
2008,06,03,07,09,10.40
2008,06,03,07,10,10.40
2008,06,03,07,11,10.40
2008,06,03,07,12,10.40
2008,06,03,07,13,10.40
2008,06,03,07,14,10.40
2008,06,03,07,15,10.40
2008,06,03,07,16,10.40
2008,06,03,07,17,10.40
2008,06,03,07,18,10.40
2008,06,03,07,19,10.40
2008,06,03,07,20,10.50
2008,06,03,07,21,10.60
2008,06,03,07,22,10.60
2008,06,03,07,23,10.60
2008,06,03,07,24,10.60
2008,06,03,07,25,10.60
2008,06,03,07,26,10.60
2008,06,03,07,27,10.60
2008,06,03,07,28,10.60
2008,06,03,07,29,10.60
2008,06,03,07,30,10.60
2008,06,03,07,31,10.60
2008,06,03,07,32,10.70
2008,06,03,07,33,10.70
2008,06,03,07,34,10.70
2008,06,03,07,35,10.70
2008,06,03,07,36,10.80
2008,06,03,07,37,10.80
2008,06,03,07,38,10.90
2008,06,03,07,39,10.90
2008,06,03,07,40,10.90
2008,06,03,07,41,10.90
2008,06,03,07,42,11.00
2008,06,03,07,43,11.10
2008,06,03,07,44,11.10
2008,06,03,07,45,11.10
2008,06,03,07,46,11.10
2008,06,03,07,47,11.10
2008,06,03,07,48,11.10
2008,06,03,07,49,11.10
2008,06,03,07,50,11.10
2008,06,03,07,51,11.10
2008,06,03,07,52,11.10
2008,06,03,07,53,11.10
2008,06,03,07,54,11.10
2008,06,03,07,55,11.10
2008,06,03,07,56,11.10
2008,06,03,07,57,11.10
2008,06,03,07,58,11.10
2008,06,03,07,59,11.10
2008,06,03,08,00,11.10
2008,06,03,08,01,11.20
2008,06,03,08,02,11.20
2008,06,03,08,03,11.20
2008,06,03,08,04,11.20
2008,06,03,08,05,11.20
2008,06,03,08,06,11.20
2008,06,03,08,07,11.20
2008,06,03,08,08,11.20
2008,06,03,08,09,11.20
2008,06,03,08,10,11.20
2008,06,03,08,11,11.20
2008,06,03,08,12,11.30
2008,06,03,08,13,11.30
2008,06,03,08,14,11.30
2008,06,03,08,15,11.40
2008,06,03,08,16,11.30
2008,06,03,08,17,11.30
2008,06,03,08,18,11.30
2008,06,03,08,19,11.40
2008,06,03,08,20,11.40
2008,06,03,08,21,11.40
2008,06,03,08,22,11.40
2008,06,03,08,23,11.40
2008,06,03,08,24,11.40
2008,06,03,08,25,11.40
2008,06,03,08,26,11.50
2008,06,03,08,27,11.50
2008,06,03,08,28,11.40
2008,06,03,08,29,11.40
2008,06,03,08,30,11.40
2008,06,03,08,31,11.40
2008,06,03,08,32,11.40
2008,06,03,08,33,11.40
2008,06,03,08,34,11.40
2008,06,03,08,35,11.40
2008,06,03,08,36,11.40
2008,06,03,08,37,11.40
2008,06,03,08,38,11.40
2008,06,03,08,39,11.40
2008,06,03,08,40,11.40
2008,06,03,08,41,11.40
2008,06,03,08,42,11.40
2008,06,03,08,43,11.40
2008,06,03,08,44,11.40
2008,06,03,08,45,11.40
2008,06,03,08,46,11.40
2008,06,03,08,47,11.40
2008,06,03,08,48,11.40
2008,06,03,08,49,11.40
2008,06,03,08,50,11.40
2008,06,03,08,51,11.50
2008,06,03,08,52,11.60
2008,06,03,08,53,11.60
2008,06,03,08,54,11.60
2008,06,03,08,55,11.60
2008,06,03,08,56,11.60
2008,06,03,08,57,11.60
2008,06,03,08,58,11.60
2008,06,03,08,59,11.60
2008,06,03,09,00,11.70
2008,06,03,09,01,11.70
2008,06,03,09,02,11.70
2008,06,03,09,03,11.80
2008,06,03,09,04,11.80
2008,06,03,09,05,11.80
2008,06,03,09,06,11.80
2008,06,03,09,07,11.80
2008,06,03,09,08,11.70
2008,06,03,09,09,11.70
2008,06,03,09,10,11.70
2008,06,03,09,11,11.70
2008,06,03,09,12,11.80
2008,06,03,09,13,11.80
2008,06,03,09,14,11.80
2008,06,03,09,15,11.80
2008,06,03,09,16,11.70
2008,06,03,09,17,11.70
2008,06,03,09,18,11.70
2008,06,03,09,19,11.70
2008,06,03,09,20,11.70
2008,06,03,09,21,11.60
2008,06,03,09,22,11.70
2008,06,03,09,23,11.70
2008,06,03,09,24,11.70
2008,06,03,09,25,11.70
2008,06,03,09,26,11.80
2008,06,03,09,27,11.80
2008,06,03,09,28,11.80
2008,06,03,09,29,11.80
2008,06,03,09,30,11.80
2008,06,03,09,31,11.80
2008,06,03,09,32,11.80
2008,06,03,09,33,11.80
2008,06,03,09,34,11.80
2008,06,03,09,35,11.80
2008,06,03,09,36,11.80
2008,06,03,09,37,11.80
2008,06,03,09,38,11.70
2008,06,03,09,39,11.70
2008,06,03,09,40,11.70
2008,06,03,09,41,11.70
2008,06,03,09,42,11.70
2008,06,03,09,43,11.70
2008,06,03,09,44,11.70
2008,06,03,09,45,11.70
2008,06,03,09,46,11.70
2008,06,03,09,47,11.70
2008,06,03,09,48,11.70
2008,06,03,09,49,11.70
2008,06,03,09,50,11.70
2008,06,03,09,51,11.70
2008,06,03,09,52,11.70
2008,06,03,09,53,11.70
2008,06,03,09,54,11.70
2008,06,03,09,55,11.70
2008,06,03,09,56,11.70
2008,06,03,09,57,11.70
2008,06,03,09,58,11.70
2008,06,03,09,59,11.70
2008,06,03,10,00,11.70
2008,06,03,10,01,11.70
2008,06,03,10,02,11.70
2008,06,03,10,03,11.70
2008,06,03,10,04,11.70
2008,06,03,10,05,11.80
2008,06,03,10,06,11.80
2008,06,03,10,07,11.80
2008,06,03,10,08,11.80
2008,06,03,10,09,11.80
2008,06,03,10,10,11.90
2008,06,03,10,11,11.90
2008,06,03,10,12,12.00
2008,06,03,10,13,12.00
2008,06,03,10,14,12.00
2008,06,03,10,15,12.00
2008,06,03,10,16,12.00
2008,06,03,10,17,12.00
2008,06,03,10,18,12.00
2008,06,03,10,19,12.10
2008,06,03,10,20,12.00
2008,06,03,10,21,12.00
2008,06,03,10,22,11.90
2008,06,03,10,23,11.90
2008,06,03,10,24,11.90
2008,06,03,10,25,11.90
2008,06,03,10,26,11.80
2008,06,03,10,27,11.80
2008,06,03,10,28,11.80
2008,06,03,10,29,11.80
2008,06,03,10,30,11.80
2008,06,03,10,31,11.80
2008,06,03,10,32,11.80
2008,06,03,10,33,11.80
2008,06,03,10,34,11.80
2008,06,03,10,35,11.80
2008,06,03,10,36,11.80
2008,06,03,10,37,11.80
2008,06,03,10,38,11.90
2008,06,03,10,39,11.90
2008,06,03,10,40,12.00
2008,06,03,10,41,12.00
2008,06,03,10,42,12.00
2008,06,03,10,43,12.00
2008,06,03,10,44,12.00
2008,06,03,10,45,12.00
2008,06,03,10,46,12.00
2008,06,03,10,47,12.00
2008,06,03,10,48,12.00
2008,06,03,10,49,12.10
2008,06,03,10,50,12.10
2008,06,03,10,51,12.20
2008,06,03,10,52,12.20
2008,06,03,10,53,12.20
2008,06,03,10,54,12.20
2008,06,03,10,55,12.30
2008,06,03,10,56,12.30
2008,06,03,10,57,12.30
2008,06,03,10,58,12.30
2008,06,03,10,59,12.30
2008,06,03,11,00,12.30
2008,06,03,11,01,12.30
2008,06,03,11,02,12.30
2008,06,03,11,03,12.30
2008,06,03,11,04,12.30
2008,06,03,11,05,12.30
2008,06,03,11,06,12.30
2008,06,03,11,07,12.30
2008,06,03,11,08,12.30
2008,06,03,11,09,12.30
2008,06,03,11,10,12.30
2008,06,03,11,11,12.30
2008,06,03,11,12,12.40
2008,06,03,11,13,12.40
2008,06,03,11,14,12.40
2008,06,03,11,15,12.50
2008,06,03,11,16,12.50
2008,06,03,11,17,12.50
2008,06,03,11,18,12.60
2008,06,03,11,19,12.60
2008,06,03,11,20,12.60
2008,06,03,11,21,12.60
2008,06,03,11,22,12.60
2008,06,03,11,23,12.50
2008,06,03,11,24,12.50
2008,06,03,11,25,12.50
2008,06,03,11,26,12.40
2008,06,03,11,27,12.40
2008,06,03,11,28,12.30
2008,06,03,11,29,12.30
2008,06,03,11,30,12.30
2008,06,03,11,31,12.40
2008,06,03,11,32,12.40
2008,06,03,11,33,12.40
2008,06,03,11,34,12.40
2008,06,03,11,35,12.40
2008,06,03,11,36,12.50
2008,06,03,11,37,12.50
2008,06,03,11,38,12.50
2008,06,03,11,39,12.50
2008,06,03,11,40,12.50
2008,06,03,11,41,12.60
2008,06,03,11,42,12.60
2008,06,03,11,43,12.60
2008,06,03,11,44,12.70
2008,06,03,11,45,12.80
2008,06,03,11,46,12.80
2008,06,03,11,47,12.80
2008,06,03,11,48,12.80
2008,06,03,11,49,12.80
2008,06,03,11,50,12.80
2008,06,03,11,51,12.80
2008,06,03,11,52,12.80
2008,06,03,11,53,12.80
2008,06,03,11,54,12.80
2008,06,03,11,55,12.70
2008,06,03,11,56,12.70
2008,06,03,11,57,12.70
2008,06,03,11,58,12.70
2008,06,03,11,59,12.60
2008,06,03,12,00,12.60
2008,06,03,12,01,12.50
2008,06,03,12,02,12.50
2008,06,03,12,03,12.40
2008,06,03,12,04,12.40
2008,06,03,12,05,12.50
2008,06,03,12,06,12.50
2008,06,03,12,07,12.50
2008,06,03,12,08,12.40
2008,06,03,12,09,12.40
2008,06,03,12,10,12.40
2008,06,03,12,11,12.40
2008,06,03,12,12,12.50
2008,06,03,12,13,12.50
2008,06,03,12,14,12.50
2008,06,03,12,15,12.50
2008,06,03,12,16,12.50
2008,06,03,12,17,12.50
2008,06,03,12,18,12.50
2008,06,03,12,19,12.50
2008,06,03,12,20,12.60
2008,06,03,12,21,12.60
2008,06,03,12,22,12.60
2008,06,03,12,23,12.60
2008,06,03,12,24,12.70
2008,06,03,12,25,12.60
2008,06,03,12,26,12.60
2008,06,03,12,27,12.60
2008,06,03,12,28,12.60
2008,06,03,12,29,12.60
2008,06,03,12,30,12.60
2008,06,03,12,31,12.60
2008,06,03,12,32,12.60
2008,06,03,12,33,12.60
2008,06,03,12,34,12.70
2008,06,03,12,35,12.70
2008,06,03,12,36,12.60
2008,06,03,12,37,12.60
2008,06,03,12,38,12.60
2008,06,03,12,39,12.60
2008,06,03,12,40,12.60
2008,06,03,12,41,12.60
2008,06,03,12,42,12.60
2008,06,03,12,43,12.60
2008,06,03,12,44,12.60
2008,06,03,12,45,12.60
2008,06,03,12,46,12.70
2008,06,03,12,47,12.60
2008,06,03,12,48,12.60
2008,06,03,12,49,12.60
2008,06,03,12,50,12.60
2008,06,03,12,51,12.60
2008,06,03,12,52,12.50
2008,06,03,12,53,12.50
2008,06,03,12,54,12.50
2008,06,03,12,55,12.50
2008,06,03,12,56,12.50
2008,06,03,12,57,12.50
2008,06,03,12,58,12.50
2008,06,03,12,59,12.50
2008,06,03,13,00,12.50
2008,06,03,13,01,12.50
2008,06,03,13,02,12.50
2008,06,03,13,03,12.50
2008,06,03,13,04,12.50
2008,06,03,13,05,12.50
2008,06,03,13,06,12.50
2008,06,03,13,07,12.50
2008,06,03,13,08,12.50
2008,06,03,13,09,12.50
2008,06,03,13,10,12.40
2008,06,03,13,11,12.50
2008,06,03,13,12,12.50
2008,06,03,13,13,12.50
2008,06,03,13,14,12.50
2008,06,03,13,15,12.40
2008,06,03,13,16,12.40
2008,06,03,13,17,12.50
2008,06,03,13,18,12.50
2008,06,03,13,19,12.50
2008,06,03,13,20,12.50
2008,06,03,13,21,12.60
2008,06,03,13,22,12.60
2008,06,03,13,23,12.60
2008,06,03,13,24,12.60
2008,06,03,13,25,12.60
2008,06,03,13,26,12.70
2008,06,03,13,27,12.70
2008,06,03,13,28,12.80
2008,06,03,13,29,12.80
2008,06,03,13,30,12.80
2008,06,03,13,31,12.80
2008,06,03,13,32,12.90
2008,06,03,13,33,12.90
2008,06,03,13,34,12.90
2008,06,03,13,35,13.00
2008,06,03,13,36,13.00
2008,06,03,13,37,13.00
2008,06,03,13,38,13.00
2008,06,03,13,39,13.10
2008,06,03,13,40,13.00
2008,06,03,13,41,13.00
2008,06,03,13,42,13.00
2008,06,03,13,43,13.00
2008,06,03,13,44,13.00
2008,06,03,13,45,13.00
2008,06,03,13,46,12.90
2008,06,03,13,47,12.90
2008,06,03,13,48,12.90
2008,06,03,13,49,12.90
2008,06,03,13,50,12.90
2008,06,03,13,51,13.00
2008,06,03,13,52,13.00
2008,06,03,13,53,12.90
2008,06,03,13,54,12.90
2008,06,03,13,55,12.90
2008,06,03,13,56,13.00
2008,06,03,13,57,13.00
2008,06,03,13,58,13.10
2008,06,03,13,59,13.20
2008,06,03,14,00,13.20
2008,06,03,14,01,13.20
2008,06,03,14,02,13.30
2008,06,03,14,03,13.30
2008,06,03,14,04,13.30
2008,06,03,14,05,13.30
2008,06,03,14,06,13.30
2008,06,03,14,07,13.30
2008,06,03,14,08,13.30
2008,06,03,14,09,13.30
2008,06,03,14,10,13.30
2008,06,03,14,11,13.30
2008,06,03,14,12,13.30
2008,06,03,14,13,13.30
2008,06,03,14,14,13.30
2008,06,03,14,15,13.30
2008,06,03,14,16,13.30
2008,06,03,14,17,13.30
2008,06,03,14,18,13.30
2008,06,03,14,19,13.30
2008,06,03,14,20,13.40
2008,06,03,14,21,13.40
2008,06,03,14,22,13.50
2008,06,03,14,23,13.50
2008,06,03,14,24,13.50
2008,06,03,14,25,13.60
2008,06,03,14,26,13.60
2008,06,03,14,27,13.60
2008,06,03,14,28,13.70
2008,06,03,14,29,13.60
2008,06,03,14,30,13.60
2008,06,03,14,31,13.50
2008,06,03,14,32,13.50
2008,06,03,14,33,13.50
2008,06,03,14,34,13.50
2008,06,03,14,35,13.50
2008,06,03,14,36,13.50
2008,06,03,14,37,13.60
2008,06,03,14,38,13.60
2008,06,03,14,39,13.60
2008,06,03,14,40,13.60
2008,06,03,14,41,13.70
2008,06,03,14,42,13.70
2008,06,03,14,43,13.70
2008,06,03,14,44,13.70
2008,06,03,14,45,13.70
2008,06,03,14,46,13.70
2008,06,03,14,47,13.70
2008,06,03,14,48,13.70
2008,06,03,14,49,13.70
2008,06,03,14,50,13.60
2008,06,03,14,51,13.60
2008,06,03,14,52,13.60
2008,06,03,14,53,13.60
2008,06,03,14,54,13.60
2008,06,03,14,55,13.60
2008,06,03,14,56,13.60
2008,06,03,14,57,13.60
2008,06,03,14,58,13.60
2008,06,03,14,59,13.60
2008,06,03,15,00,13.60
2008,06,03,15,01,13.60
2008,06,03,15,02,13.50
2008,06,03,15,03,13.50
2008,06,03,15,04,13.60
2008,06,03,15,05,13.60
2008,06,03,15,06,13.60
2008,06,03,15,07,13.50
2008,06,03,15,08,13.50
2008,06,03,15,09,13.50
2008,06,03,15,10,13.50
2008,06,03,15,11,13.60
2008,06,03,15,12,13.50
2008,06,03,15,13,13.50
2008,06,03,15,14,13.60
2008,06,03,15,15,13.60
2008,06,03,15,16,13.60
2008,06,03,15,17,13.60
2008,06,03,15,18,13.60
2008,06,03,15,19,13.60
2008,06,03,15,20,13.60
2008,06,03,15,21,13.60
2008,06,03,15,22,13.50
2008,06,03,15,23,13.50
2008,06,03,15,24,13.50
2008,06,03,15,25,13.50
2008,06,03,15,26,13.50
2008,06,03,15,27,13.50
2008,06,03,15,28,13.50
2008,06,03,15,29,13.50
2008,06,03,15,30,13.40
2008,06,03,15,31,13.30
2008,06,03,15,32,13.40
2008,06,03,15,33,13.40
2008,06,03,15,34,13.40
2008,06,03,15,35,13.40
2008,06,03,15,36,13.30
2008,06,03,15,37,13.30
2008,06,03,15,38,13.40
2008,06,03,15,39,13.50
2008,06,03,15,40,13.50
2008,06,03,15,41,13.50
2008,06,03,15,42,13.60
2008,06,03,15,43,13.60
2008,06,03,15,44,13.60
2008,06,03,15,45,13.70
2008,06,03,15,46,13.70
2008,06,03,15,47,13.80
2008,06,03,15,48,13.80
2008,06,03,15,49,13.90
2008,06,03,15,50,13.90
2008,06,03,15,51,14.00
2008,06,03,15,52,14.10
2008,06,03,15,53,14.10
2008,06,03,15,54,14.00
2008,06,03,15,55,13.90
2008,06,03,15,56,13.90
2008,06,03,15,57,13.80
2008,06,03,15,58,13.70
2008,06,03,15,59,13.60
2008,06,03,16,00,13.50
2008,06,03,16,01,13.50
2008,06,03,16,02,13.50
2008,06,03,16,03,13.50
2008,06,03,16,04,13.50
2008,06,03,16,05,13.50
2008,06,03,16,06,13.50
2008,06,03,16,07,13.50
2008,06,03,16,08,13.50
2008,06,03,16,09,13.60
2008,06,03,16,10,13.60
2008,06,03,16,11,13.60
2008,06,03,16,12,13.60
2008,06,03,16,13,13.70
2008,06,03,16,14,13.70
2008,06,03,16,15,13.70
2008,06,03,16,16,13.70
2008,06,03,16,17,13.70
2008,06,03,16,18,13.60
2008,06,03,16,19,13.60
2008,06,03,16,20,13.60
2008,06,03,16,21,13.50
2008,06,03,16,22,13.60
2008,06,03,16,23,13.60
2008,06,03,16,24,13.50
2008,06,03,16,25,13.50
2008,06,03,16,26,13.50
2008,06,03,16,27,13.50
2008,06,03,16,28,13.50
2008,06,03,16,29,13.50
2008,06,03,16,30,13.50
2008,06,03,16,31,13.50
2008,06,03,16,32,13.50
2008,06,03,16,33,13.50
2008,06,03,16,34,13.50
2008,06,03,16,35,13.40
2008,06,03,16,36,13.40
2008,06,03,16,37,13.40
2008,06,03,16,38,13.40
2008,06,03,16,39,13.40
2008,06,03,16,40,13.30
2008,06,03,16,41,13.30
2008,06,03,16,42,13.30
2008,06,03,16,43,13.30
2008,06,03,16,44,13.30
2008,06,03,16,45,13.20
2008,06,03,16,46,13.20
2008,06,03,16,47,13.20
2008,06,03,16,48,13.20
2008,06,03,16,49,13.20
2008,06,03,16,50,13.20
2008,06,03,16,51,13.20
2008,06,03,16,52,13.20
2008,06,03,16,53,13.20
2008,06,03,16,54,13.20
2008,06,03,16,55,13.20
2008,06,03,16,56,13.20
2008,06,03,16,57,13.20
2008,06,03,16,58,13.20
2008,06,03,16,59,13.20
2008,06,03,17,00,13.20
2008,06,03,17,01,13.20
2008,06,03,17,02,13.30
2008,06,03,17,03,13.30
2008,06,03,17,04,13.30
2008,06,03,17,05,13.30
2008,06,03,17,06,13.30
2008,06,03,17,07,13.30
2008,06,03,17,08,13.30
2008,06,03,17,09,13.30
2008,06,03,17,10,13.30
2008,06,03,17,11,13.20
2008,06,03,17,12,13.20
2008,06,03,17,13,13.20
2008,06,03,17,14,13.20
2008,06,03,17,15,13.20
2008,06,03,17,16,13.20
2008,06,03,17,17,13.10
2008,06,03,17,18,13.10
2008,06,03,17,19,13.10
2008,06,03,17,20,13.10
2008,06,03,17,21,13.10
2008,06,03,17,22,13.00
2008,06,03,17,23,13.00
2008,06,03,17,24,12.90
2008,06,03,17,25,12.90
2008,06,03,17,26,12.90
2008,06,03,17,27,12.90
2008,06,03,17,28,12.80
2008,06,03,17,29,12.80
2008,06,03,17,30,12.90
2008,06,03,17,31,12.80
2008,06,03,17,32,12.90
2008,06,03,17,33,12.90
2008,06,03,17,34,12.80
2008,06,03,17,35,12.80
2008,06,03,17,36,12.80
2008,06,03,17,37,12.80
2008,06,03,17,38,12.80
2008,06,03,17,39,12.80
2008,06,03,17,40,12.80
2008,06,03,17,41,12.80
2008,06,03,17,42,12.70
2008,06,03,17,43,12.70
2008,06,03,17,44,12.70
2008,06,03,17,45,12.70
2008,06,03,17,46,12.70
2008,06,03,17,47,12.70
2008,06,03,17,48,12.70
2008,06,03,17,49,12.60
2008,06,03,17,50,12.60
2008,06,03,17,51,12.60
2008,06,03,17,52,12.60
2008,06,03,17,53,12.60
2008,06,03,17,54,12.60
2008,06,03,17,55,12.50
2008,06,03,17,56,12.50
2008,06,03,17,57,12.50
2008,06,03,17,58,12.50
2008,06,03,17,59,12.50
2008,06,03,18,00,12.50
2008,06,03,18,01,12.50
2008,06,03,18,02,12.50
2008,06,03,18,03,12.50
2008,06,03,18,04,12.40
2008,06,03,18,05,12.40
2008,06,03,18,06,12.40
2008,06,03,18,07,12.40
2008,06,03,18,08,12.30
2008,06,03,18,09,12.30
2008,06,03,18,10,12.30